Location: Alincthun
(50.7310°N, 1.8022°E)
Time: 20:44:01
(UTC+00:00)

CZ-4B R/B - Pass Details

Date: 17 February 2020
Orbit: 486 x 653 km, 97.9° (Epoch: 29 March)

Event Time Altitude Azimuth Distance (km) Brightness Sun altitude
Rises 05:10:08 0° 10° (N) 2,676 6.5 -18.3°
Reaches altitude 10° 05:12:18 10° 7° (N) 1,758 5.5 -18.0°
Maximum altitude 05:16:00 57° 289° (WNW) 598 2.6 -17.4°
Enters shadow 05:17:42 28° 221° (SW) 964 3.7 -17.1°
